Regional Weather Roundup
Issued by NWS Wakefield, VA

Home | Current Version | Previous Version | Text Only | Print | Product List | Glossary Off
Versions: 1 2 3 4 5 6 7 8 9 10 11 12 13 14 15 16 17 18 19 20 21 22 23 24 25 26 27 28 29 30 31 32 33 34 35 36 37 38 39 40 41 42 43 44 45 46 47 48 49 50

000
ASUS41 KAKQ 250915
RWRAKQ

REGIONAL WEATHER ROUNDUP
NATIONAL WEATHER SERVICE WAKEFIELD VA
500 AM EDT MON JUL 25 2016

Note: "fair" indicates few or no clouds below 12,000 feet with no
significant weather and/or obstructions to visibility. * = Denotes
station may not report precipitation (e.g., rain,snow,etc.),
thunder or fog.

VAZ042-051-052>054-056-251000-
NORTHERN VIRGINIA

CITY           SKY/WX    TMP DP  RH WIND       PRES   REMARKS
WASH NATIONAL  MOCLDY    82  78  88 SE3       29.95F
DULLES         MOCLDY    77  72  84 NW5       29.97S
FORT BELVOIR   NOT AVBL
QUANTICO       FAIR      80  74  81 W3        29.97R
FREDERICKSBRG* FAIR      81  75  80 CALM      29.96R
STAFFORD*      FAIR      76  74  91 CALM      30.01R
WARRENTON      FAIR      76  71  84 CALM      29.97S
CULPEPER*      FAIR      76  75  98 CALM      29.99R
MANASSAS*      FAIR      75  73  94 SE3       29.96S
LEESBURG*      FAIR      77  75  94 W5        29.98S
WINCHESTER     FAIR      75  72  88 W5        30.00S
FRONT ROYAL*   FAIR      73  72  94 SW5       30.00S
LURAY*         FAIR      72  72 100 CALM      30.02S
$$

VAZ048-049-060>072-079>083-251000-
CENTRAL AND SOUTH CENTRAL VIRGINIA

CITY           SKY/WX    TMP DP  RH WIND       PRES   REMARKS
RICHMOND       FAIR      75  72  90 S3        29.99S
CHESTERFIELD*  FAIR      73  61  64 CALM      30.01S
PETERSBURG*    FAIR     N/A N/A N/A CALM      30.01S
HANOVER        FAIR      79  72  79 S3        30.00S
TAPPAHANNOCK*  FAIR      79  76  90 S5        29.99R
QUINTON*       FAIR      77  75  93 CALM      29.98S
CHARLOTTSVILLE FAIR      77  72  84 CALM      29.99S
GORDONSVILLE*  FAIR      74  74  99 CALM      29.98F
ORANGE*          N/A     73  73 100 CALM      30.00S
LOUISA*        FAIR      81  75  83 CALM      29.98F
BUMPASS*       FAIR      75  74  96 CALM      29.99S
FARMVILLE*     FAIR     N/A N/A N/A CALM      30.00S
CREWE*         FAIR      76  76 100 CALM      30.01R
FORT PICKETT*  FAIR      74  73  98 SW5       30.02S
CHASE CITY*    FAIR      74  72  95 CALM      30.03R
CLARKSVILLE*   FAIR      73  73 100 CALM      30.03R
SOUTH HILL*    FAIR      73  73 100 CALM      30.08S
LAWRENCEVILLE* FAIR      74  74  99 CALM      30.02S
EMPORIA*       FAIR      72  72 100 CALM      30.03R FOG
$$

VAZ088>098-251000-
SOUTHEAST VIRGINIA

CITY           SKY/WX    TMP DP  RH WIND       PRES   REMARKS
NORFOLK        FAIR      80  76  87 SW13      30.00S
VIRGINIA BEACH MOCLDY    84  75  74 SW9       30.00R
NORFOLK NAVAL  FAIR      80  76  87 SW8       30.01S
WEST POINT*    FAIR      79  75  88 S5        30.00S
SALUDA*        FAIR      79  77  93 SW7       29.98S
NEWPORT NEWS   FAIR      80  77  90 SW9       30.00R
LANGLEY AFB    FAIR      80  77  89 S12       30.00R
FORT EUSTIS    FAIR      80  77  90 SW7       29.98R
WILLIAMSBURG*  FAIR      81  77  89 SW5       30.01S
HR EXEC AP*    FAIR      77  73  88 SW5       30.03S
FRANKLIN*      FAIR      76  75  94 S5        30.02S
US460-WAKEFLD  FAIR      77  74  90 S3        30.00S FOG
$$

VAZ020-022-025-037-045-251000-
WEST CENTRAL AND SOUTHWEST VIRGINIA

CITY           SKY/WX    TMP DP  RH WIND       PRES   REMARKS
STAUNTON*      FAIR      69  68  98 CALM      30.06S FOG
WAYNESBORO*    FAIR      71  69  93 W7        30.06S
HOT SPRINGS VA FAIR      72  64  78 W9        30.20S
LYNCHBURG      FAIR      71  70  96 CALM      30.05S
DANVILLE       FAIR      72  71  97 CALM      30.04R FOG
SOUTH BOSTON*  FAIR      71  70  96 CALM      30.03R
MARTINSVILLE   FAIR      68  67  97 CALM      30.07S FOG
ROANOKE        FAIR      73  69  87 W3        30.07S
BLACKSBURG     FAIR      67  67  99 CALM      30.15S FOG
DUBLIN*        FAIR      69  68  97 CALM      30.13S
MARION*        FAIR      67  66  96 CALM      30.17S
HILLSVILLE*    FAIR      69  68  97 S5        30.15S
RICHLANDS*     FAIR      71  71  99 CALM      30.16R
WISE*          MOCLDY    72  68  88 S6        30.16F
ABINGDON*      MOCLDY    72  71  96 CALM      30.12S
$$

MDZ021>025-VAZ099-100-251000-
SOUTHERN MARYLAND AND THE DELMARVA PENINSULA

CITY           SKY/WX    TMP DP  RH WIND       PRES   REMARKS
PATUXENT RIVER PTCLDY    80  76  87 S6        29.96S
BAY BRIDGE APT CLOUDY    81  73  78 SW5       29.94S
LEONARDTOWN    PTCLDY    81  73  78 SW3       29.98S
DOVER          CLOUDY    77  77 100 S5        29.93S
GEORGETOWN     CLOUDY    79  77  94 S3        29.95R FOG
EASTON         PTCLDY    75  75 100 CALM      29.98S
CAMBRIDGE      PTCLDY    73  73 100 CALM      29.95S
SALISBURY      CLOUDY    78  75  90 S6        29.95F
OCEAN CITY     CLOUDY   N/A N/A N/A SW5       29.96R
WALLOPS ISLAND FAIR      81  78  91 NW5       29.97S
ACCOMACK*      FAIR      81  75  83 CALM      29.98S
$$

NCZ012>017-030>032-251000-
NORTH CENTRAL AND EASTERN NORTH CAROLINA

CITY           SKY/WX    TMP DP  RH WIND       PRES   REMARKS
ROANOKE RAPIDS FAIR      73  73 100 S5        30.02F FOG
RALEIGH        CLEAR     77  74  90 SW6       30.04R
ELIZABETH CITY PTCLDY    78  76  93 SW9       30.03R
AHOSKIE*       PTCLDY    74  73  98 S3        30.03R FOG
EDENTON*       PTCLDY    81  81 100 SW6       30.04R
CURRITUCK*     PTCLDY    79  78  95 SW6       30.03R
KILL DEVIL HLS PTCLDY    80  76  89 SW5       30.02R
MANTEO           N/A     79  79 100 W9        30.03R
CAPE HATTERAS  CLEAR     81  77  88 SW9       30.04S
TARBORO*       FAIR      77  75  94 CALM      30.04R
GOLDSBORO      PTCLDY    79  79 100 S3        30.03R
WASHINGTON     CLEAR     77  75  93 SW5       30.04R
GREENVILLE     PTCLDY    77  77 100 SW7       30.06R
NEW BERN       CLEAR     77  75  93 SW5       30.06R
WILMINGTON     CLEAR     78  76  93 SW3       30.05R
$$

VAZ048-251000-
ELSEWHERE

CITY           SKY/WX    TMP DP  RH WIND       PRES   REMARKS
HARRISBURG PA  CLOUDY    75  75 100 NW5       29.95R
BALTIMORE      MOCLDY    77  73  87 W5        29.94F
ANNAPOLIS      CLOUDY    79  73  82 CALM      29.93F
ANDREWS AFB    FAIR      76  73  91 S5        29.95F
PHILADELPHIA   TSTM      75  72  90 NW21G33   29.97R FOG
GREENSBORO     PTCLDY    77  73  87 SW7       30.04R
ROCKY MOUNT    CLEAR     76  76 100 S3        30.04R
$$

VAZ100-251000-
MARINE

STATION/POSITION TIME  TEMP    WIND        PRES    WAVE   SWELL
                       AIR SEA DIR/SP/G            HT/PER HT/PER
                 (UTC) (F)     (DEG/KT/KT) (MB)    (FT/S) (FT/S)
BRANDYWINE LGT   0806   74     180/ 11/ 12   N/A
CAPE MAY NJ      0800   78 71  160/  6/  9 1014.0F
LEWES DE         0800   79 74  190/  2/  3 1014.1F
OCEAN-CITY-INLET 0800   74 69  220/  3/  4 1014.7F
WACHAPREAGUE VA  0800   82 85  240/  4/  6 1015.0R
THOMAS POINT MD  0900   80 83  290/  7/  8 1015.4F
GOOSES REEF MD   0900   83 84  200/ 12/ 14 1014.9F   1/ 2
COVE POINT MD    0800   81     190/  7/  8 1014.7F
SOLOMONS ISLAND  0800   81 86  150/  5/  5   N/A
BISHOPS HEAD MD  0800   81 86   90/  2/  4 1014.8F
PINEY POINT MD   0800          280/  3/  5   N/A
POTOMAC MD       0900   84 84  260/ 10/ 12 1013.6R   1/ 2
CAMBRIDGE MD     0800   77 86  200/  3/  5 1013.0F
LEWISETTA VA     0800   83 87  250/  7/ 10 1014.1S
RAPPAHANNOCK LGT 0800          220/ 15/ 16 1015.5R
STINGRAY PT      0800   85 85  170/ 12/ 14 1015.3R
YORK RVR RNG VA  0800   83     240/ 12/ 14 1014.8R
YORKTOWN VA      0800   81 84  220/  7/  9 1015.0R
JAMESTOWN VA     0900   80 88  210/ 10/ 12   N/A     0
DOMINION TERM VA 0800   81     230/ 12/ 15 1015.7R
KIPTOPEKE VA     0800      78  230/ 10/ 12   N/A
CHES BAY BRIDGE  0800   81 70  210/ 13/ 14 1015.5R
CAPE HENRY VA    0800   81     220/  7/ 12   N/A
WILLOUBY STN VA  0800   81     230/ 12/ 13   N/A
CAPE HENRY BUOY  0812      76                N/A     2/ 9
1ST LANDING BUOY 0900   79 77  230/ 10/ 12 1015.5R
CAPE CHARLES BUO 0826      73                N/A     2/ 9
OFFSHORE WE BUOY 0821      81                N/A     3/ 5
64NM E OF VA BCH 0850   82 81  240/ 14/ 17 1015.9R   3/ 5   2/ 8
DUCK PIER NC     0800   81 61  230/ 13/ 17 1016.0R
44100 DUCK FRF   0805      75                N/A     2/ 8
44056 DUCK FRF   0811      65                N/A     1/ 9
OREGON INLET NC  0800   83 85  220/ 16/ 21 1016.6R
HATTERAS NC      0800   81 84  230/  6/  9 1016.9F
DIAMOND SHLS NC  0850   84 85  240/ 14/ 16 1017.3S   3/ 4   2/ 8
CAPE LOOKOUT NC  0900   83     230/  8/ 10 1017.3R
$$



USA.gov is the U.S. government's official web portal to all federal, state and local government web resources and services.